Regional Weather Roundup
Issued by NWS Spokane, WA

Home | Current Version | Previous Version | Text Only | Print | Product List | Glossary On
Versions: 1 2 3 4 5 6 7 8 9 10 11 12 13 14 15 16 17 18 19 20 21 22 23 24 25 26 27 28 29 30 31 32 33 34 35 36 37 38 39 40 41 42 43 44 45 46 47 48 49 50
631
NZUS01 KOTX 060957
RWROTX
EASTERN WASHINGTON/NORTHERN IDAHO ROUNDUP
NATIONAL WEATHER SERVICE, SPOKANE WA
300 AM PDT FRI MAY 06 2016

Note: "fair" indicated few or no clouds below 12,000 feet with no
significant weather and/or obstructions to visibility.

...NORTHEAST WASHINGTON AND NORTHERN IDAHO PANHANDLE...

CITY           SKY/WX    TMP DP  RH WIND       PRES   REMARKS
SPOKANE INTL   CLOUDY    57  49  74 N9        29.97F
SPOKANE DOWNTO CLOUDY    58  50  75 E3        29.98S
DEER PARK      CLOUDY    54  49  83 N7        30.00S

...SOUTHEAST WASHINGTON AND SOUTHERN IDAHO PANHANDLE...

CITY           SKY/WX    TMP DP  RH WIND       PRES   REMARKS
WALLA WALLA    CLOUDY    55  52  89 S9        29.95R
PULLMAN/MOSCOW MOCLDY    55  53  93 NE3       29.98R
LOWELL           N/A     55  53  93 CALM      29.97S

...COLUMBIA BASIN...

CITY           SKY/WX    TMP DP  RH WIND       PRES   REMARKS
EPHRATA        PTCLDY    61  39  44 N21       29.98R
MOSES LAKE     MOCLDY    50  42  74 N7        29.98F
TRI CITIES     MOCLDY    56  46  69 NW7       29.95R
HERMISTON      CLOUDY    64  46  52 N7        29.94S
PENDLETON      CLOUDY    55  48  77 NW8       29.96R

...EAST SLOPES CASCADES...

CITY           SKY/WX    TMP DP  RH WIND       PRES   REMARKS
THE DALLES     PTCLDY    60  50  69 NW10      29.96S
YAKIMA         MOCLDY    56  48  74 W5        30.00S
ELLENSBURG     MOCLDY    55  46  71 NW15      30.01R
OMAK           PTCLDY    55  40  56 N13       30.06R

...SOUTHERN BRITISH COLUMBIA...

CITY           SKY/WX    TMP DP  RH WIND       PRES   REMARKS

...WESTERN MONTANA...

CITY           SKY/WX    TMP DP  RH WIND       PRES   REMARKS
MISSOULA       MOCLDY    51  45  79 CALM      30.06R

...NEIGHBORING CITIES...

CITY           SKY/WX    TMP DP  RH WIND       PRES   REMARKS
SEATTLE        PTCLDY    54  43  66 NE3       30.06F



USA.gov is the U.S. government's official web portal to all federal, state and local government web resources and services.